This is the latest recevied weather packets stored in our database for station/object EA6AMI-5. If no packets are shown the sender has not sent any weather packets the latest 10 day(s).
| Time | Temp. | Humidity | Pressure | Rain* | Wind** | Luminosity | Snow |
|---|---|---|---|---|---|---|---|
| 1787938023 | 27.78° C | 49% | 1017 hPa | 0 mm | - | 29 W/m² | - |
| 1787937483 | 27.78° C | 49% | 1017.4 hPa | 0 mm | - | 43 W/m² | - |
| 1787936943 | 27.78° C | 48% | 1017.4 hPa | 0 mm | - | 47 W/m² | - |
| 1787936403 | 27.78° C | 48% | 1017.5 hPa | 0 mm | - | 46 W/m² | - |
| 1787936043 | 27.78° C | 48% | 1018.6 hPa | 0 mm | - | 46 W/m² | - |
| 1787935503 | 27.78° C | 48% | 1019 hPa | 0 mm | - | 45 W/m² | - |
| 1787934963 | 28.33° C | 48% | 1017.7 hPa | 0 mm | - | 41 W/m² | - |
| 1787934423 | 28.33° C | 48% | 1018.3 hPa | 0 mm | - | 70 W/m² | - |
| 1787933884 | 27.78° C | 48% | 1017.7 hPa | 0 mm | - | 91 W/m² | - |
| 1787933343 | 27.78° C | 48% | 1018.8 hPa | 0 mm | - | 66 W/m² | - |
| 1787932803 | 27.78° C | 47% | 1018.6 hPa | 0 mm | - | 105 W/m² | - |
| 1787932443 | 27.78° C | 48% | 1018.9 hPa | 0 mm | - | 113 W/m² | - |
| 1787931903 | 27.78° C | 48% | 1019.1 hPa | 0 mm | - | 117 W/m² | - |
| 1787931363 | 27.78° C | 48% | 1018.8 hPa | 0 mm | - | 97 W/m² | - |
| 1787930823 | 27.78° C | 48% | 1017.2 hPa | 0 mm | - | 142 W/m² | - |
| 1787930283 | 27.78° C | 48% | 1017.3 hPa | 0 mm | - | 86 W/m² | - |
| 1787929743 | 27.78° C | 48% | 1018.1 hPa | 0 mm | - | 70 W/m² | - |
| 1787929203 | 27.78° C | 48% | 1018.5 hPa | 0 mm | - | 66 W/m² | - |
| 1787928843 | 27.78° C | 48% | 1018.6 hPa | 0 mm | - | 67 W/m² | - |
| 1787928303 | 28.33° C | 48% | 1017.3 hPa | 0 mm | - | 68 W/m² | - |
| 1787927763 | 28.33° C | 48% | 1016.5 hPa | 0 mm | - | 93 W/m² | - |
| 1787927223 | 28.33° C | 49% | 1017.3 hPa | 0 mm | - | 79 W/m² | - |
| 1787926683 | 28.33° C | 47% | 1017.8 hPa | 0 mm | - | 55 W/m² | - |
| 1787926143 | 28.33° C | 47% | 1017.6 hPa | 0 mm | - | 126 W/m² | - |
| 1787925603 | 28.33° C | 47% | 1016.8 hPa | 0 mm | - | 102 W/m² | - |
* Rain latest hour (hover to see other rain measurements)
** Current wind speed in m/s (hover to see current wind gust speed)